[[{"header":{"parameterUnit":"m.s-1","parameterCategory":1,"la1":30.2991,"la2":30.254,"lo1":-89.0895,"lo2":-89.0444,"dx":0.0017,"dy":0.0017,"nx":28,"ny":28,"refTime":"2023-01-10T15:00:00:Z","depth":0,"parameterNumber":2,"parameterNumberName":"U-component_of_WINDS"},"data":[0,0,0,0,0,0,0,0,0,0,0,0,0,0,0,0,0,0,0,0,0,0,0,0,0,0,0,0,0,0,0,0,0,0,0,0,0,0,0,0,0,0,0,0,0,0,0,0,0,0,0,0,0,0,0,0,0,0,0.7105,0.7105,0,0.7146,0.7147,0.7147,0.7138,0.7137,0.7136,0.7136,0.7181,0.7182,0.7184,0,0,0,0,0,0,0,0,0,0,0,0,0,0.702,0.7022,0.7105,0.7105,0.7106,0.7146,0.7147,0.7147,0.7138,0.7137,0.7136,0.7135,0.718,0.7182,0.7185,0,0,0,0,0,0,0,0,0,0,0,0,0,0.7059,0.7022,0.7105,0.7106,0.7106,0.7146,0.7147,0.7147,0.7138,0.7137,0.7136,0.7135,0.7179,0.7182,0.7185,0.7226,0,0,0.7194,0.7195,0,0,0,0,0,0,0,0,0.7057,0.7062,0.7105,0.7106,0.7107,0.7136,0.7133,0.7174,0.7139,0.7126,0.7136,0.7134,0.7167,0.7171,0.7181,0.7228,0.723,0.7194,0.7196,0.7197,0.7198,0,0,0,0,0,0,0,0.7054,0.706,0.7121,0.7106,0.7107,0.7105,0.7109,0.7141,0.7153,0.7127,0.7127,0.7132,0.7167,0.7178,0.7182,0.7231,0.7194,0.7196,0.7198,0.7199,0.7315,0.7317,0,0,0,0,0,0,0.705,0.7058,0.712,0.7122,0.7078,0.7108,0.7112,0.7128,0.7152,0.7155,0.7133,0.7131,0.7174,0.7179,0.7184,0.7235,0.7197,0.72,0.7201,0.7314,0.7316,0.7317,0,0,0,0,0,0,0.7048,0.7056,0.7118,0.709,0.7098,0.711,0.7127,0.7129,0.714,0.7156,0.7159,0.7142,0.7173,0.7179,0.7216,0.7236,0.7201,0.7204,0.7312,0.7315,0.7316,0.7337,0,0,0,0,0,0,0.7046,0.7055,0.7071,0.709,0.7099,0.7149,0.7129,0.7131,0.7145,0.7143,0.7166,0.7168,0.7173,0.7211,0.7219,0.7239,0.7206,0.7311,0.7313,0.7316,0.7334,0.7339,0.7343,0,0,0,0,0,0.7043,0.7075,0.7071,0.7079,0.7118,0.715,0.7155,0.7159,0.7147,0.7163,0.7173,0.7167,0.7232,0.7215,0.7223,0.7245,0.7309,0.7313,0.7316,0.7332,0.7338,0.7343,0,0,0,0,0,0,0.7058,0.7077,0.7074,0.7113,0.713,0.7148,0.7169,0.7165,0.7187,0.7184,0.7189,0.7194,0.7231,0.7242,0.7222,0.7287,0.7269,0.7274,0.7279,0.7285,0.7289,0.7287,0.7208,0,0,0,0,0,0.7065,0.7089,0.7105,0.7138,0.7146,0.7156,0.717,0.7171,0.719,0.7197,0.721,0.7228,0.7253,0.7269,0.7293,0.7335,0.7341,0.7354,0.7359,0.7362,0.7367,0.7391,0.7398,0.7327,0.7327,0.7327,0,0,0.7082,0.7095,0.711,0.7141,0.7154,0.7179,0.7162,0.7189,0.7208,0.7201,0.7237,0.7247,0.7268,0.7307,0.7326,0.7317,0.7387,0.7366,0.7369,0.7372,0.7395,0.7402,0.7408,0.7329,0.7329,0.7328,0,0,0.7125,0.7137,0.7166,0.7179,0.72,0.7206,0.7213,0.7232,0.7239,0.7274,0.727,0.7292,0.7334,0.735,0.7363,0.7412,0.7408,0.7419,0.7444,0.7467,0.7473,0.7478,0.7497,0.7504,0.7424,0.7424,0.7424,0,0.7143,0.7179,0.7181,0.7209,0.7224,0.7217,0.7248,0.7261,0.7288,0.7299,0.7289,0.7342,0.7355,0.7399,0.7411,0.7422,0.7431,0.7418,0.7472,0.7477,0.7482,0.75,0.7507,0.7425,0.7425,0.7425,0.7425,0,0.7201,0.7227,0.7248,0.7274,0.7291,0.732,0.7327,0.7344,0.7343,0.7351,0.7388,0.7404,0.7431,0.7441,0.7441,0.7485,0.748,0.747,0.7453,0.749,0.7507,0.7514,0.7427,0.7426,0.7426,0.7426,0,0,0.7256,0.7282,0.729,0.7302,0.7324,0.7345,0.7373,0.7399,0.7414,0.7433,0.7458,0.7494,0.7486,0.7501,0.7503,0.7523,0.7563,0.7512,0.7513,0.7522,0.7614,0.7622,0.763,0.756,0.7561,0.7562,0.7613,0,0.7302,0.7352,0.7355,0.7401,0.7425,0.742,0.7445,0.7462,0.747,0.7492,0.7501,0.7527,0.7514,0.7523,0.7543,0.7554,0.7582,0.755,0.7585,0.7586,0.7581,0.7639,0.7647,0.7694,0.7619,0.762,0.7621,0,0.7362,0.7383,0.7431,0.745,0.7461,0.7483,0.7508,0.7529,0.7548,0.7552,0.7569,0.7568,0.7599,0.7579,0.7622,0.7601,0.7615,0.7622,0.7624,0.7629,0.7607,0.7647,0.7709,0.7717,0.7632,0.7631,0.763,0,0.7399,0.7438,0.7473,0.7483,0.7506,0.7522,0.7533,0.755,0.7566,0.7587,0.7598,0.7623,0.7637,0.7656,0.7662,0.7647,0.7706,0.7686,0.7712,0.7712,0.7726,0.7725,0.7793,0.7732,0.7732,0.7732,0.7732,0,0.7451,0.7481,0.749,0.7511,0.7545,0.7548,0.7582,0.7592,0.7608,0.7631,0.7628,0.7651,0.7656,0.7681,0.7685,0.7721,0.7727,0.7733,0.7734,0.7734,0.7734,0.7745,0.7742,0.7734,0.7733,0.7733,0.7733,0,0.7498,0.7505,0.7542,0.756,0.7566,0.759,0.7607,0.7628,0.7635,0.7665,0.7672,0.7684,0.7712,0.772,0.7753,0.7757,0.78,0.7797,0.7793,0.7794,0.7819,0.7818,0.7898,0.791,0.784,0.784,0.7841,0,0.7531,0.7555,0.7575,0.7591,0.7602,0.7627,0.7643,0.7647,0.7664,0.7687,0.7706,0.7733,0.7756,0.7801,0.7813,0.7839,0.7838,0.7865,0.7842,0.7842,0.7841,0.784,0.7843,0.787,0.7871,0.7871,0.7872,0,0.7591,0.7593,0.7616,0.764,0.7659,0.7678,0.7697,0.771,0.7717,0.7736,0.7764,0.7782,0.7816,0.7844,0.787,0.7882,0.7879,0.7878,0.7886,0.7887,0.7885,0.7888,0.7807,0.7877,0.7876,0.7876,0.7876,0.7875,0.7633,0.7654,0.7672,0.7698,0.7712,0.773,0.7751,0.7761,0.7784,0.7812,0.7813,0.7844,0.7864,0.7899,0.7912,0.7937,0.7929,0.794,0.7943,0.7946,0.7949,0.7879,0.7942,0.7941,0.7941,0.7941,0.7941,0,0.7694,0.7705,0.7729,0.7755,0.7775,0.7769,0.7789,0.7807,0.7835,0.7853,0.7875,0.7908,0.7935,0.7949,0.7976,0.7994,0.7993,0.8001,0.8001,0.8004,0.7953,0.7945,0.8002,0.8002,0.8002,0.8002,0.8001,0.8001,0.7728,0.7763,0.7768,0.7811,0.7822,0.7852,0.7865,0.7881,0.7896,0.7933,0.7955,0.7964,0.7981,0.8009,0.8034,0.8038,0.8049,0.8058,0.8061,0.8014,0.8007,0.8002,0.7994,0.806,0.806,0.8109,0.811,0.811]},{"header":{"parameterUnit":"m.s-1","parameterCategory":1,"la1":30.2991,"la2":30.254,"lo1":-89.0895,"lo2":-89.0444,"dx":0.0017,"dy":0.0017,"nx":28,"ny":28,"refTime":"2023-01-10T15:00:00:Z","depth":0,"parameterNumber":3,"parameterNumberName":"V-component_of_WINDS"},"data":[0,0,0,0,0,0,0,0,0,0,0,0,0,0,0,0,0,0,0,0,0,0,0,0,0,0,0,0,0,0,0,0,0,0,0,0,0,0,0,0,0,0,0,0,0,0,0,0,0,0,0,0,0,0,0,0,0,0,3.9058,3.9058,0,3.9134,3.9135,3.9136,3.9114,3.9112,3.9111,3.9109,3.9184,3.9188,3.9191,0,0,0,0,0,0,0,0,0,0,0,0,0,3.8888,3.8891,3.9058,3.9059,3.9059,3.9134,3.9135,3.9136,3.9114,3.9112,3.911,3.9108,3.9183,3.9187,3.9191,0,0,0,0,0,0,0,0,0,0,0,0,0,3.8963,3.8892,3.9057,3.9057,3.9058,3.9134,3.9135,3.9137,3.9114,3.9112,3.911,3.9108,3.9182,3.9187,3.9192,3.9271,0,0,3.9208,3.921,0,0,0,0,0,0,0,0,3.8959,3.8969,3.9056,3.9058,3.9059,3.9112,3.9103,3.9182,3.9115,3.9093,3.9109,3.9106,3.9162,3.9169,3.9188,3.9275,3.9278,3.9208,3.9211,3.9214,3.9215,0,0,0,0,0,0,0,3.8953,3.8966,3.9088,3.9058,3.9059,3.9052,3.906,3.9118,3.914,3.9095,3.9093,3.9103,3.9162,3.9183,3.919,3.9279,3.9208,3.9213,3.9216,3.9218,3.9435,3.9437,0,0,0,0,0,0,3.8948,3.8961,3.9085,3.909,3.9002,3.9057,3.9066,3.9097,3.9139,3.9143,3.9105,3.9102,3.9175,3.9184,3.9192,3.9289,3.9214,3.9219,3.9222,3.9432,3.9435,3.9438,0,0,0,0,0,0,3.8944,3.8959,3.9082,3.9025,3.9041,3.9063,3.9098,3.91,3.9121,3.9147,3.915,3.9123,3.9174,3.9185,3.9252,3.9291,3.9221,3.9226,3.9429,3.9433,3.9437,3.9481,0,0,0,0,0,0,3.894,3.8958,3.8989,3.9026,3.9044,3.9142,3.91,3.9103,3.9131,3.9127,3.9164,3.9168,3.9173,3.9244,3.9257,3.9297,3.923,3.9426,3.9431,3.9435,3.9477,3.9486,3.9495,0,0,0,0,0,3.8934,3.8998,3.8991,3.9006,3.9084,3.9144,3.9154,3.9159,3.9134,3.9165,3.9181,3.9167,3.9284,3.9252,3.9266,3.9307,3.9423,3.9429,3.9435,3.9473,3.9485,3.9495,0,0,0,0,0,0,3.8964,3.9003,3.8996,3.9074,3.9106,3.9141,3.918,3.9172,3.9211,3.9206,3.9209,3.9218,3.9287,3.9303,3.9266,3.9386,3.935,3.9359,3.9373,3.9385,3.9394,3.9389,3.9234,0,0,0,0,0,3.898,3.9027,3.9058,3.9124,3.9141,3.9158,3.9185,3.9186,3.9219,3.9232,3.9253,3.9284,3.9328,3.9357,3.9399,3.9478,3.9486,3.9514,3.9523,3.953,3.9538,3.9582,3.9595,3.9458,3.9457,3.9457,0,0,3.9013,3.904,3.907,3.9131,3.9156,3.9205,3.917,3.9222,3.9257,3.9239,3.9305,3.9321,3.9356,3.943,3.9464,3.9446,3.9578,3.9538,3.9543,3.9548,3.9589,3.9602,3.9614,3.9462,3.9461,3.946,0,0,3.9099,3.9124,3.9183,3.9209,3.9247,3.9258,3.9272,3.9308,3.9318,3.9384,3.9372,3.9413,3.9488,3.9514,3.9537,3.9632,3.9621,3.9645,3.9694,3.9736,3.9747,3.9756,3.9791,3.9803,3.9653,3.9653,3.9653,0,3.9135,3.9209,3.9213,3.9267,3.9295,3.9281,3.934,3.9364,3.9414,3.9433,3.9412,3.9507,3.953,3.961,3.9633,3.9652,3.9668,3.9642,3.9745,3.9755,3.9764,3.9797,3.981,3.9656,3.9656,3.9656,3.9655,0,3.9252,3.9303,3.9345,3.9395,3.9427,3.9483,3.9495,3.9526,3.9524,3.9537,3.9603,3.963,3.9677,3.9696,3.9694,3.9775,3.9764,3.9744,3.9708,3.978,3.9811,3.9824,3.966,3.9659,3.9658,3.9658,0,0,3.936,3.9412,3.9428,3.9451,3.9492,3.9531,3.9585,3.9633,3.966,3.9694,3.974,3.9804,3.9786,3.9812,3.9813,3.985,3.9924,3.9826,3.9827,3.9844,4.0017,4.0032,4.0047,3.9916,3.9919,3.992,4.0014,0,3.945,3.9549,3.9554,3.9643,3.969,3.9678,3.9725,3.9755,3.9768,3.9809,3.9822,3.9868,3.9841,3.9856,3.9892,3.9908,3.9959,3.9901,3.9959,3.9961,3.9952,4.0063,4.008,4.0167,4.0026,4.0028,4.003,0,3.957,3.9609,3.9703,3.9739,3.9758,3.9802,3.9845,3.9884,3.9918,3.9924,3.9953,3.9948,4.0003,3.9964,4.004,4.0,4.0023,4.0034,4.0038,4.0045,4.0001,4.0074,4.0195,4.0208,4.0049,4.0047,4.0046,0,3.9641,3.9717,3.9784,3.9803,3.9846,3.9876,3.9895,3.9926,3.9954,3.9991,4.001,4.0052,4.0076,4.0109,4.0115,4.0086,4.0191,4.0152,4.0198,4.0198,4.0222,4.0221,4.035,4.0235,4.0235,4.0234,4.0234,0,3.9742,3.9801,3.9817,3.9858,3.9922,3.9927,3.999,4.0006,4.0034,4.0077,4.0068,4.0108,4.0113,4.0155,4.0159,4.0222,4.0232,4.0238,4.0239,4.024,4.024,4.0257,4.0252,4.0238,4.0237,4.0236,4.0236,0,3.9834,3.9847,3.9919,3.9953,3.9963,4.0009,4.0038,4.0076,4.0087,4.0142,4.0155,4.0172,4.0221,4.023,4.0286,4.0289,4.0364,4.0358,4.0353,4.0353,4.0399,4.0395,4.0545,4.0565,4.0436,4.0437,4.0438,0,3.9898,3.9943,3.9983,4.0012,4.0032,4.0079,4.0108,4.0113,4.0143,4.0184,4.0218,4.0265,4.0304,4.0381,4.0398,4.0441,4.0437,4.0486,4.0443,4.0443,4.0439,4.0437,4.0441,4.0495,4.0496,4.0497,4.0498,0,4.0012,4.0017,4.006,4.0105,4.014,4.0176,4.0209,4.0233,4.0243,4.0277,4.0327,4.0357,4.0415,4.0462,4.0505,4.0522,4.0512,4.0511,4.0524,4.0527,4.0523,4.0527,4.0378,4.0508,4.0507,4.0506,4.0506,4.0506,4.0093,4.0133,4.0167,4.0215,4.0241,4.0273,4.0311,4.0328,4.037,4.0419,4.0419,4.0473,4.0504,4.0561,4.0581,4.0623,4.0607,4.0626,4.0631,4.0636,4.0641,4.0515,4.0631,4.063,4.063,4.063,4.063,0,4.0208,4.0229,4.0274,4.0322,4.0359,4.0347,4.0383,4.0415,4.0464,4.0495,4.0533,4.059,4.0635,4.0655,4.07,4.073,4.0726,4.0741,4.074,4.0744,4.0652,4.0637,4.0743,4.0743,4.0743,4.0743,4.0743,4.0743,4.0272,4.0339,4.0347,4.0426,4.0446,4.0501,4.0523,4.0552,4.0576,4.0641,4.068,4.0693,4.0719,4.0765,4.0806,4.081,4.0828,4.0845,4.0848,4.0762,4.075,4.074,4.0725,4.0849,4.0849,4.0937,4.0938,4.0938]}]]